Location: Melbourne
(37.8170°S, 144.9670°E)
Time: 01:31:30
(UTC+10:00)

CZ-3 R/B - Visible Passes

Search period start: 02 May 2016 00:00
Search period end: 12 May 2016 00:00
Orbit: 203 x 11135 km, 28.5° (Epoch: 30 April)

Date Brightness Start Highest point End Pass type
(mag) Time Alt. Az. Time Alt. Az. Time Alt. Az.
02 May 5.3 02:15:06 10° NNW 02:36:02 17° NNE 02:45:49 10° NE visible
02 May 3.2 06:27:30 10° NW 06:34:42 22° N 06:37:58 10° NE visible
02 May 6.1 23:59:44 10° N 00:09:23 11° NNE 00:17:02 10° NNE visible
03 May 4.5 04:04:17 10° NW 04:21:22 23° N 04:28:03 10° NE visible
04 May 5.4 01:35:17 10° NNW 02:02:31 18° NNE 02:14:25 10° NE visible
04 May 3.4 05:52:39 10° NW 06:03:00 26° N 06:07:05 10° NE visible
04 May 6.2 23:21:20 10° NNE 23:32:49 11° NNE 23:41:53 10° NNE visible
05 May 4.7 03:25:30 10° NW 03:48:13 25° N 03:56:18 10° ENE visible
06 May 5.5 00:53:21 10° NNW 01:27:06 19° NNE 01:41:21 10° NE visible
06 May 3.6 05:15:27 10° NW 05:29:48 30° N 05:34:48 10° ENE visible
06 May 6.3 22:47:05 10° NNE 22:54:09 10° NNE 23:00:21 10° NNE visible
07 May 4.9 02:43:55 10° NW 03:13:21 27° N 03:23:06 10° ENE visible
08 May 5.7 00:09:47 10° NNW 00:57:07 18° NE 01:06:33 10° ENE visible
08 May 3.8 04:36:30 11° NW 04:55:03 33° N 05:01:08 10° ENE visible
09 May 5.2 01:59:35 10° NNW 02:36:40 29° NNE 02:48:25 10° ENE visible
09 May 2.8 06:23:34 10° WNW 06:33:50 32° N 06:37:32 10° ENE visible
09 May 5.8 23:25:19 10° N 00:26:25 14° NE 00:29:52 10° ENE visible
10 May 4.1 04:05:33 21° NW 04:18:40 36° N 04:26:04 10° ENE visible
11 May 5.3 01:12:51 10° NNW 01:59:40 30° NNE 02:12:12 10° ENE visible
11 May 3.0 05:42:50 10° WNW 05:57:22 37° N 06:01:56 10° ENE visible
